Powrót do katalogu

SL-6 R/B(2)

AktywnyHEO
NORAD 22181·ROCKET BODY·🇷🇺 Russia

Wystrzelony Oct 14, 1992 z Plesetsk Cosmodrome

Loading…

Następne Przeloty (najbliższe 24 godziny)

TLE

ŚwieżeSource: Space-Track

Epoka: Sep 13, 2026, 17:16 UTC

1 22181U 92067D   26256.72000563 -.00000315  00000-0  00000-0 0  9992
2 22181  64.0139 148.5589 6887158 251.3667  27.0624  2.00405297245216

Śledź SL-6 R/B(2) w czasie rzeczywistym z AllMySat

Download on the App Store